User: anonymous   Login
Location: Arborea
(39.7744°N, 8.5819°E)
Time: 20:30:53
(UTC+00:00)
Language:

Cosmos 2219 Rocket - Orbit

View from above orbital plane
View from above orbital plane
View from above satellite
View from above satellite

Ground track
Ground track

The orbit data is extracted from the following two-line orbital elements,

1 22220U 92076B   22017.43789922  .00000219  00000-0  13415-3 0  9997
2 22220  71.0005 132.7719 0014918 244.2696 179.4184 14.16481775507997
Epoch (UTC): 17 January 2022 10:30:34
Eccentricity: 0.0014918
inclination: 71.0005°
perigee height: 826 km
apogee height: 848 km
right ascension of ascending node: 132.7719°
argument of perigee: 244.2696°
revolutions per day: 14.16481775
mean anomaly at epoch: 179.4184°
orbit number at epoch: 50799

The dashed part of the orbit path shows where the satellite is in the earth's shadow,  

DLR